Regional Weather Roundup
Issued by NWS

Home | Current Version | Previous Version | Text Only | Print | Product List | Glossary On
Versions: 1 2 3 4 5 6 7 8 9 10 11 12 13 14 15 16 17 18 19 20 21 22 23 24 25 26 27 28 29 30 31 32 33 34 35 36 37 38 39 40 41 42 43 44 45 46 47 48 49 50
000
ASUS44 KJAN 201510
RWRMS

MISSISSIPPI HOURLY WEATHER ROUNDUP
NATIONAL WEATHER SERVICE JACKSON MS
1000 AM CDT WED AUG 20 2014

NOTE: "FAIR: INDICATES FEW OR NO CLOUDS BELOW 12,000 FEET WITH NO
SIGNIFICANT WEATHER AND/OR OBSTRUCTIONS TO VISIBILITY.

MSZ001>002-007>008-010>013-018>021-025>028-034>036-201600-
NORTHWEST MISSISSIPPI

CITY           SKY/WX    TMP DP  RH WIND       PRES   REMARKS
CLARKSDALE     FAIR      84  73  70 SW10      30.05R HX  91
CLEVELAND      FAIR      83  75  75 W8        30.05R HX  90
GREENWOOD      SUNNY     84  72  67 SW5       30.06R
GREENVILLE       N/A    N/A N/A N/A MISG      30.05S
GRENADA        FAIR      82  72  69 W6        30.06S
OLIVE BRANCH   MOSUNNY   84  79  84 SW7       30.04R HX  96
OXFORD         FAIR      82  70  65 W5        30.07R
TUNICA         SUNNY     84  72  65 W10       30.04R
$$

MSZ003>006-009-014>017-022>024-029>033-037>039-201600-
NORTHEAST MISSISSIPPI

CITY           SKY/WX    TMP DP  RH WIND       PRES   REMARKS
BELMONT        FAIR      84  76  77 W6        30.06R HX  93
COLUMBUS AFB   SUNNY     86  74  66 VRB6      30.06R HX  94
CORINTH        FAIR      86  73  66 VRB7G13   30.03R HX  93
GOLDN TRIANGLE SUNNY     86  73  66 W7        30.07R HX  93
STARKVILLE     FAIR      86  72  62 W5        30.07R HX  92
TUPELO         SUNNY     87  73  62 W8        30.05R HX  94
$$

MSZ040-058-201600-
CENTRAL MISSISSIPPI

CITY           SKY/WX    TMP DP  RH WIND       PRES   REMARKS
JACKSON INTL   MOSUNNY   83  71  67 SW3       30.09R
JACKSON HAWKNS SUNNY     84  70  62 W8        30.09R
MERIDIAN KEY   SUNNY     83  71  67 SW7       30.09R
MERIDIAN NAS   SUNNY     85  73  67 W7        30.08R HX  91
RAYMOND        FAIR      84  79  84 W5        30.09R HX  96
VICKSBURG      SUNNY     85  71  63 VRB6      30.08R HX  90
$$

MSZ059>079-201600-
SOUTH MISSISSIPPI

CITY           SKY/WX    TMP DP  RH WIND       PRES   REMARKS
BROOKHAVEN     FAIR      84  73  70 W9        30.11R HX  91
COLUMBIA       FAIR      86  77  74 MISG      30.09R HX  97
HATTIESBURG    SUNNY     87  73  62 VRB5      30.10R HX  94
MCCOMB         SUNNY     85  73  67 SW9       30.09R HX  91
NATCHEZ        SUNNY     84  75  74 SW6       30.09R HX  92
PINE BELT      SUNNY     84  73  70 SW5       30.12R HX  91
$$

MSZ080>082-201600-
COASTAL MISSISSIPPI

CITY           SKY/WX    TMP DP  RH WIND       PRES   REMARKS
BAY ST LOUIS   MOSUNNY  N/A N/A N/A CALM      30.09R
BILOXI         MOSUNNY   89  76  66 VRB1      30.09R HX  99
PASCAGOULA     MOSUNNY   88  75  65 CALM      30.09R HX  97
GULFPORT       MOSUNNY   87  74  64 W3        30.09R HX  95
$$



USA.gov is the U.S. government's official web portal to all federal, state and local government web resources and services.